ATLAS 5 CENTAUR DEB, 44015

Orbit data source: Space-Track

ATLAS 5 CENTAUR DEB, 44015 is space debris in HEO originally from a launch on Wed, 17 Sep 2014 UTC launched from the Air Force Eastern Test Range (AFETR). Debris objects in space refer to the collection of defunct objects orbiting the Earth. Examples of debris include non-operational satellites, rocket bodies, and fragments generated from explosions, collisions, or faulty payload assembly.

Loading next visibility...
Identifier
44015, 2014-055BW
Orbit
HEO
Country
Flag of USUS
Related business
Flag of USUnited Launch Alliance/Lockheed Martin (US)
Manufacturer
Unknown
Mission
Spacecraft
Bus & Motor
Unknown
Mass
Unknown
Launch date (UTC)
2014-09-17 (11 years ago)
Launch vehicle
Unknown
Launch site
Air Force Eastern Test Range (AFETR)
Object type
Payload
Rocket body
Debris
Shape & HBR
Unknown shape, 1.1 m
Radar Cross Section
RCS unknown

Expand to show TLE details & history
Last TLE update: 2 days ago

TLE from 2 days ago
0 ATLAS 5 CENTAUR DEB
1 44015U 14055BW  25297.08958892  .00000121  00000-0  00000-0 0  9997
2 44015  20.9976 112.5712 5045036 221.8986  85.9486  1.95142467 49953
Epoch: 2025-10-24T02:09Z
TLE epoch observation values (Epoch: 2025-10-24T02:09:00.482Z)
Latitude
-0.00007°
Longitude
47.54683°
Altitude
25,875 km
Speed
3.159 km/s
True Right ascension
07h 30m 09s
True Declination
0° 00' 00"
Sunlit
Object was in daylight at epoch
Visualization orbit readout
Latitude
Unknown
Longitude
Unknown
Altitude
Unknown
Speed
Unknown
Apparent Right ascension
Unknown
Apparent Declination
Unknown
Sunlit
N/A
Visualization observer readout
Local Sidereal Time
17:38:35
Azimuth
Unknown
Elevation
Unknown
Doppler factor
Unknown
Orbital elements
Apogee altitude
34,321.787 km
Perigee altitude
7,026.062 km
Semi-major axis
27,052.062 km
Eccentricity
0.5045
Inclination
20.9976°
RAAN
112.5712°
Arg. of periapsis
221.8986°
True anomaly
138.13415°
Mean anomaly
85.9486°
Eccentric anomaly
112.62919°
Mean motion
0.4878 °/min
Orbital period
738.01 mins
BSTAR
0
Loading maneuver chart data...
Computing Atmospheric mass density...

Documentation

Showing up to 5 results
|